FW6591 Weather Reports


Display with metric or nautical units.
time (UTC)temp
F
wind
direction
speed
MPH
gust
MPH
rain 1hr
in
rain 24hr
in
rain mn
in
humidity
%
barometer
mb
20260508074548 52 9 2.0 4.0 0.00 0.02 0.00 78 1024.8
20260508073100 50 350 2.0 4.0 0.00 0.02 0.00 79 1024.8
20260508071544 49 0 1.0 3.0 0.00 0.02 0.00 81 1024.8
20260508070048 48 325 1.0 3.0 0.00 0.02 0.00 82 1024.7
20260508064547 48 318 1.0 4.0 0.00 0.02 0.00 83 1024.7
20260508063054 46 321 2.0 4.0 0.00 0.02 0.00 83 1024.5
20260508061542 45 360 2.0 4.0 0.00 0.02 0.00 87 1024.4
20260508060045 43 5 2.0 5.0 0.00 0.02 0.00 88 1024.4
20260508054552 42 348 2.0 4.0 0.00 0.02 0.00 89 1024.3
20260508053053 43 342 1.0 5.0 0.00 0.02 0.00 88 1024.3
20260508051540 43 351 1.0 4.0 0.00 0.02 0.00 89 1024.3
20260508044548 43 352 1.0 3.0 0.00 0.02 0.00 88 1024.2
20260508043049 44 303 1.0 3.0 0.00 0.02 0.00 88 1024.3
20260508041544 44 329 2.0 4.0 0.00 0.02 0.00 87 1024.3
20260508040052 44 329 2.0 4.0 0.00 0.02 0.00 87 1024.2
20260508034543 45 322 2.0 3.0 0.00 0.02 0.00 85 1024.2
20260508033046 47 325 3.0 8.0 0.00 0.02 0.00 80 1024.2
20260508031546 46 311 3.0 8.0 0.00 0.02 0.00 84 1024.3
20260508030050 44 344 2.0 5.0 0.00 0.02 0.00 86 1024.1
20260508024540 45 334 0.0 3.0 0.00 0.02 0.00 85 1024.0
20260508023044 45 350 1.0 3.0 0.00 0.02 0.00 85 1024.0
20260508021544 45 337 1.0 4.0 0.00 0.02 0.00 84 1024.0
20260508020054 47 260 1.0 4.0 0.00 0.02 0.00 82 1024.1
20260508014545 47 254 0.0 2.0 0.00 0.02 0.00 82 1024.1
20260508013043 48 288 2.0 5.0 0.00 0.02 0.00 81 1024.2
20260508011549 47 307 4.0 8.0 0.00 0.02 0.00 85 1024.0
20260508010048 48 329 2.0 4.0 0.00 0.02 0.00 83 1024.3
20260508004545 48 298 0.0 2.0 0.00 0.02 0.00 83 1024.5
20260508003051 48 0 1.0 2.0 0.00 0.02 0.00 84 1024.6
20260508001547 48 314 0.0 6.0 0.00 0.02 0.00 84 1024.4
20260508000043 49 286 1.0 4.0 0.00 0.02 0.00 83 1024.5
20260507234552 49 271 1.0 4.0 0.00 0.02 0.00 84 1024.4
20260507233103 49 245 0.0 4.0 0.00 0.02 0.00 84 1024.7
20260507231548 49 232 0.0 5.0 0.00 0.02 0.00 85 1024.7
20260507230048 50 225 2.0 5.0 0.00 0.02 0.00 85 1024.8
20260507224544 50 336 2.0 5.0 0.00 0.02 0.00 84 1024.7
20260507223056 50 288 2.0 8.0 0.00 0.02 0.00 84 1024.9
20260507221547 50 275 3.0 5.0 0.00 0.02 0.00 85 1024.7
20260507220049 50 284 1.0 5.0 0.00 0.02 0.00 86 1024.9
20260507214547 51 329 3.0 7.0 0.00 0.02 0.02 86 1025.0
20260507213045 51 350 3.0 6.0 0.00 0.02 0.02 86 1024.9
20260507211549 51 307 3.0 6.0 0.00 0.02 0.02 86 1024.8
20260507210105 51 332 1.0 3.0 0.00 0.02 0.02 87 1024.9
20260507204544 51 340 1.0 3.0 0.00 0.02 0.02 87 1024.8
20260507203043 52 252 0.0 3.0 0.00 0.02 0.02 86 1024.7
20260507201543 52 342 0.0 5.0 0.00 0.02 0.02 84 1024.8
20260507200051 52 315 2.0 8.0 0.00 0.02 0.02 84 1024.9
20260507194555 52 0 1.0 3.0 0.00 0.03 0.02 85 1024.9
20260507193047 52 305 0.0 2.0 0.00 0.03 0.02 86 1024.7
20260507191547 52 0 0.0 2.0 0.00 0.03 0.02 86 1024.5
20260507184545 52 0 0.0 4.0 0.00 0.03 0.02 85 1024.7
20260507183110 52 305 0.0 2.0 0.00 0.03 0.02 86 1024.7
20260507181545 52 0 0.0 2.0 0.00 0.03 0.02 86 1024.7
20260507180043 52 307 2.0 3.0 0.00 0.03 0.02 87 1024.6
20260507174601 52 360 0.0 5.0 0.00 0.06 0.02 86 1024.5
20260507173047 52 308 2.0 4.0 0.00 0.06 0.02 85 1024.4
20260507171549 52 360 2.0 5.0 0.00 0.06 0.02 84 1024.2
20260507170046 53 323 2.0 7.0 0.00 0.06 0.02 82 1024.1
20260507164603 53 338 1.0 3.0 0.00 0.18 0.02 82 1024.0
20260507163047 53 315 2.0 4.0 0.00 0.18 0.02 80 1023.8
20260507161550 53 308 0.0 2.0 0.00 0.18 0.02 82 1023.4
20260507160041 53 0 0.0 3.0 0.01 0.18 0.02 81 1023.2
20260507154548 53 0 1.0 3.0 0.01 0.21 0.02 80 1023.1
20260507153045 53 325 1.0 4.0 0.02 0.21 0.02 80 1022.8
20260507151546 54 273 1.0 4.0 0.02 0.21 0.02 79 1023.0
20260507150047 53 286 1.0 12.0 0.00 0.19 0.00 78 1022.8
20260507144539 55 209 5.0 8.0 0.00 0.35 0.00 76 1022.9
20260507143047 57 238 9.0 16.0 0.00 0.34 0.00 67 1022.7
20260507141544 58 233 5.0 8.0 0.00 0.34 0.00 62 1022.5
20260507140045 58 220 6.0 11.0 0.00 0.34 0.00 60 1022.4
20260507134549 58 215 4.0 9.0 0.00 0.40 0.00 61 1022.3
20260507133050 58 224 4.0 8.0 0.00 0.40 0.00 62 1022.2
20260507131545 57 221 6.0 14.0 0.00 0.40 0.00 63 1022.2
20260507130046 58 237 8.0 14.0 0.00 0.40 0.00 62 1022.0
20260507124551 57 234 9.0 13.0 0.00 0.51 0.00 65 1022.1
20260507123042 58 276 12.0 17.0 0.00 0.51 0.00 64 1021.8
20260507121538 57 252 8.0 14.0 0.00 0.51 0.00 66 1021.7
20260507120044 57 228 5.0 12.0 0.00 0.51 0.00 68 1021.8
20260507114603 57 236 9.0 18.0 0.00 0.54 0.00 68 1021.9
20260507113103 56 213 10.0 19.0 0.00 0.54 0.00 67 1021.9
20260507111549 56 253 13.0 18.0 0.00 0.54 0.00 67 1022.0
20260507110042 56 217 13.0 22.0 0.00 0.54 0.00 66 1022.0
20260507104545 56 189 8.0 18.0 0.00 0.55 0.00 67 1022.3
20260507103050 56 202 9.0 17.0 0.00 0.55 0.00 66 1022.2
20260507101545 56 237 11.0 17.0 0.00 0.55 0.00 66 1022.2
20260507100051 56 222 12.0 17.0 0.00 0.55 0.00 65 1022.3
20260507094549 56 230 7.0 18.0 0.00 0.56 0.00 68 1022.3
20260507093051 56 236 8.0 19.0 0.00 0.56 0.00 68 1022.2
20260507091608 56 240 8.0 17.0 0.00 0.56 0.00 68 1022.2
20260507090044 56 188 7.0 18.0 0.00 0.56 0.00 68 1022.2
20260507084604 56 224 10.0 20.0 0.00 0.56 0.00 69 1022.2
20260507083048 55 211 14.0 22.0 0.00 0.56 0.00 69 1022.1
20260507081557 55 238 13.0 20.0 0.00 0.56 0.00 69 1022.1
20260507080052 54 259 6.0 16.0 0.00 0.56 0.00 71 1022.1